User: anonymous   Login
Location: Unspecified
(0.0000°N, 0.0000°E)
Time: 01:07:16
(UTC+00:00)
Language:

RASSVET-3 9 - Orbit

View from above orbital plane
View from above orbital plane
View from above satellite
View from above satellite

Ground track
Ground track

The orbit is defined by the following mean orbital elements,

1 68368U          26145.15292647 +.00000000 +00000-0 +30325-3 0 00004
2 68368  82.2970  38.2444 0006950 173.4769 186.6592 15.84329112    06
Epoch (UTC): 25 May 2026 03:40:12
Eccentricity: 0.0006950
inclination: 82.2970°
perigee height: 314 km
apogee height: 323 km
right ascension of ascending node: 38.2444°
argument of perigee: 173.4769°
revolutions per day: 15.84329112
mean anomaly at epoch: 186.6592°

The dashed part of the orbit path shows where the satellite is in the earth's shadow,  

DLR